Location: Las Navas
(40.6024°N, 4.3345°W)
Time: 01:31:17
(UTC+00:00)

Cosmos 2184 Rocket - Pass Details

Date: 03 April 2020
Orbit: 958 x 1003 km, 82.9° (Epoch: 27 May)

Event Time Altitude Azimuth Distance (km) Brightness Sun altitude
Rises 19:50:47 0° 357° (N) 3,712 7.4 -13.0°
Reaches altitude 10° 19:53:25 10° 2° (N) 2,753 6.6 -13.5°
Maximum altitude 19:59:34 52° 79° (ENE) 1,201 4.2 -14.6°
Enters shadow 20:05:04 13° 153° (SSE) 2,521 5.7 -15.6°
